Temp
13 13 13 13 13 14 14 14 14 14 14 14 14 14 14 14 14 14 14 14 13 13 13 13 13 13 14 14 15 15 16 19 16 17 15 15 14 13 12 12 12 12 11 10 11
13 13 13 13 13 14 14 14 14 14 14 14 14 14 14 14 14 14 14 14 14 13 13 13 12 13 13 14 15 13 18 18 17 17 16 15 14 14 14 12 12 11 10 11 11
12 13 13 13 13 14 14 14 14 14 14 15 14 14 14 14 14 14 14 14 14 14 14 11 11 12 14 14 15 15 18 18 17 17 16 15 15 15 15 13 12 10 9 9 9
12 13 13 13 13 13 14 14 14 14 15 15 15 14 14 14 14 15 15 15 14 14 13 13 12 13 15 15 15 16 17 17 17 16 16 16 15 14 14 13 11 10 9 9 9
12 13 13 13 13 14 14 14 14 14 15 15 15 14 14 14 14 15 15 15 14 14 14 12 13 14 15 16 16 16 16 17 16 16 16 15 15 14 13 12 11 10 10 10 10
12 13 13 13 13 14 14 14 14 14 14 14 14 14 14 13 14 15 15 14 14 13 13 13 13 13 15 16 15 15 16 16 17 16 16 16 15 14 13 12 11 10 10 10 10
13 13 13 13 13 14 14 14 14 14 14 14 14 14 13 13 14 15 15 14 14 14 13 14 13 14 15 15 15 16 16 17 17 16 16 16 15 15 13 12 11 11 11 11 10
12 13 13 13 13 13 13 14 14 14 14 14 14 14 12 14 14 15 14 14 14 14 14 14 14 14 15 15 15 16 16 17 17 16 16 16 15 14 13 13 12 12 11 11 10
12 12 12 13 13 13 13 13 14 14 14 14 14 13 12 14 14 14 14 14 14 14 14 14 14 15 15 16 16 16 16 14 15 16 16 16 14 14 14 13 13 12 11 11 11
13 13 12 13 13 13 13 13 13 13 14 13 13 13 14 13 14 14 14 14 14 14 14 14 14 16 16 17 14 14 16 15 15 16 17 17 16 15 14 14 13 13 12 11 11
13 13 13 13 13 13 13 13 13 13 13 12 13 12 12 13 14 14 14 14 13 13 14 14 15 17 18 17 15 15 16 16 15 15 17 15 16 15 14 15 14 13 12 12 12
13 13 13 13 13 13 13 13 13 13 12 13 13 13 12 13 12 12 14 13 13 14 14 15 16 17 17 16 16 17 18 18 17 17 17 16 17 16 15 15 15 14 13 13 12
13 13 13 13 13 13 13 13 13 13 12 12 13 12 13 13 13 12 13 13 14 14 15 16 17 17 16 16 16 17 18 19 18 17 17 18 18 17 16 15 15 15 14 13 13
12 13 13 13 13 13 13 13 13 13 13 13 12 12 13 13 13 13 12 13 14 15 16 16 17 16 16 16 16 18 18 17 18 18 18 17 20 18 17 17 16 15 15 14 13
13 13 13 13 13 13 13 13 13 13 18 14 13 12 12 13 14 13 12 13 14 15 15 16 16 16 16 16 17 17 18 17 17 18 19 20 20 20 18 18 17 16 15 15 14
12 13 13 13 13 13 13 13 13 13 18 14 13 13 13 13 13 13 12 13 14 14 15 16 16 15 16 16 16 17 17 17 17 18 20 20 20 21 17 17 17 16 15 15 15
12 12 13 13 12 13 13 12 13 16 15 15 14 14 14 14 14 13 13 13 14 14 15 15 15 14 15 16 16 16 17 18 19 20 21 21 20 20 18 17 16 15 15 15 15
11 12 12 12 12 12 12 10 14 17 16 15 15 15 15 15 14 14 14 14 14 15 17 16 17 16 15 15 17 16 17 19 19 21 22 20 20 19 17 16 16 16 15 15 14
11 11 11 12 12 11 11 12 16 16 16 15 15 15 15 16 15 14 14 15 15 14 16 18 17 16 16 15 16 17 17 18 19 20 21 21 19 18 17 16 15 15 15 15 14
10 10 8 11 11 11 9 12 15 14 13 14 15 15 16 16 15 15 15 15 15 15 15 16 16 17 16 15 16 16 18 17 18 19 19 21 20 20 17 17 15 15 15 15 16
9 8 8 10 10 10 10 13 13 13 12 13 14 15 16 17 16 16 16 16 15 15 15 15 15 17 15 15 16 16 16 17 18 19 20 21 21 20 18 17 15 14 13 15 15
8 8 7 8 7 9 10 11 12 11 11 11 12 13 15 15 16 16 16 16 15 15 15 15 16 16 16 16 15 16 17 16 18 18 19 20 20 18 17 16 15 14 15 15 15
8 8 6 8 8 10 11 11 10 10 11 11 11 12 13 14 14 15 15 16 15 14 15 14 15 16 16 17 15 15 16 16 17 18 18 20 19 16 15 15 14 13 15 15 15
7 7 7 6 7 8 9 10 11 10 10 11 11 11 12 12 13 13 14 15 14 13 13 13 15 15 18 17 17 16 15 16 16 17 18 18 18 15 14 14 15 15 15 15 15
6 6 6 8 9 8 8 8 9 9 10 9 10 10 11 11 12 13 13 14 14 13 12 13 14 14 15 16 16 17 17 16 16 16 17 18 18 18 16 14 12 14 14 15 14
5 4 4 5 5 5 6 7 7 8 8 9 9 9 10 10 11 12 13 13 13 13 12 12 13 13 14 15 15 15 16 16 16 16 16 16 16 17 16 14 12 14 14 14 14
5 5 5 4 5 5 6 6 7 7 7 8 8 8 8 9 9 9 9 10 11 12 13 12 13 13 14 14 14 15 15 16 15 16 15 15 16 15 15 14 12 12 14 14 13
Height
3152 3152 3152 3153 3153 3153 3153 3155 3155 3156 3156 3157 3158 3160 3162 3163 3165 3166 3168 3169 3170 3171 3172 3172 3174 3176 3178 3178 3177 3178 3173 3176 3179 3180 3184 3185 3184 3183 3182 3183 3182 3182 3182 3182 3181
3152 3152 3153 3153 3153 3153 3153 3154 3155 3156 3156 3157 3159 3160 3162 3164 3166 3167 3169 3170 3171 3172 3173 3174 3179 3179 3182 3180 3179 3175 3177 3179 3181 3181 3184 3186 3186 3186 3186 3184 3184 3183 3182 3182 3183
3152 3152 3152 3153 3153 3153 3153 3154 3154 3155 3156 3158 3159 3161 3163 3165 3168 3167 3169 3171 3172 3173 3174 3177 3179 3181 3184 3182 3180 3180 3180 3182 3184 3184 3186 3187 3188 3188 3186 3186 3185 3183 3182 3183 3185
3153 3152 3152 3153 3153 3153 3153 3154 3154 3155 3156 3158 3159 3161 3163 3165 3173 3168 3169 3172 3173 3175 3175 3177 3181 3180 3184 3183 3183 3184 3183 3182 3185 3186 3188 3188 3189 3189 3188 3188 3186 3185 3185 3187 3189
3153 3153 3152 3153 3153 3153 3154 3154 3154 3155 3156 3157 3159 3160 3163 3166 3166 3167 3170 3172 3174 3175 3177 3181 3183 3184 3182 3183 3183 3182 3184 3184 3186 3187 3188 3189 3190 3191 3190 3189 3188 3187 3188 3191 3194
3154 3153 3153 3153 3153 3153 3153 3154 3154 3154 3156 3157 3158 3160 3163 3169 3166 3167 3169 3172 3174 3176 3178 3180 3183 3183 3184 3182 3176 3182 3184 3185 3186 3188 3189 3189 3190 3190 3190 3189 3189 3189 3191 3194 3195
3154 3153 3153 3153 3152 3153 3153 3153 3154 3154 3155 3157 3158 3160 3163 3164 3165 3166 3169 3172 3174 3176 3180 3181 3181 3183 3185 3184 3183 3184 3184 3185 3186 3188 3188 3189 3191 3190 3190 3190 3190 3192 3194 3196 3195
3155 3154 3153 3152 3152 3152 3153 3153 3154 3155 3156 3157 3158 3160 3163 3162 3164 3166 3169 3172 3175 3177 3178 3180 3181 3182 3185 3184 3183 3183 3185 3184 3184 3187 3187 3189 3189 3190 3190 3191 3192 3193 3195 3195 3196
3155 3154 3153 3153 3153 3153 3153 3154 3154 3155 3156 3157 3159 3162 3163 3162 3164 3166 3169 3172 3175 3177 3180 3181 3182 3184 3185 3184 3183 3184 3182 3185 3183 3188 3187 3188 3186 3190 3192 3192 3193 3193 3194 3196 3197
3154 3154 3153 3152 3153 3153 3154 3154 3155 3156 3157 3158 3160 3164 3162 3162 3163 3166 3168 3171 3175 3178 3181 3182 3183 3185 3184 3182 3185 3185 3184 3186 3186 3185 3186 3187 3188 3190 3192 3193 3194 3194 3194 3195 3197
3155 3154 3154 3153 3153 3154 3154 3155 3159 3160 3157 3161 3162 3162 3160 3160 3163 3165 3168 3171 3175 3179 3182 3183 3185 3182 3182 3183 3183 3186 3185 3186 3186 3183 3185 3186 3187 3189 3190 3193 3194 3195 3195 3196 3198
3156 3155 3154 3154 3153 3154 3154 3155 3156 3158 3160 3157 3157 3158 3159 3159 3163 3164 3167 3172 3175 3178 3181 3183 3182 3181 3181 3183 3185 3184 3180 3181 3184 3184 3184 3184 3185 3186 3188 3190 3192 3194 3195 3196 3197
3157 3155 3155 3154 3153 3153 3154 3155 3155 3156 3158 3157 3156 3159 3159 3160 3164 3164 3166 3171 3174 3177 3179 3179 3179 3179 3182 3184 3184 3184 3181 3180 3183 3183 3183 3183 3182 3182 3185 3188 3190 3192 3194 3196 3197
3156 3155 3155 3154 3155 3154 3154 3154 3155 3156 3158 3157 3155 3158 3158 3160 3164 3165 3164 3172 3173 3175 3177 3178 3177 3179 3181 3182 3183 3180 3181 3183 3184 3182 3180 3182 3176 3179 3180 3184 3186 3190 3192 3193 3195
3156 3155 3154 3153 3153 3153 3154 3154 3155 3157 3151 3154 3155 3154 3157 3161 3161 3162 3163 3168 3170 3172 3175 3174 3174 3176 3178 3179 3181 3181 3181 3182 3182 3181 3179 3176 3177 3173 3177 3179 3181 3185 3189 3191 3193
3154 3152 3152 3152 3152 3152 3152 3154 3155 3160 3149 3151 3151 3151 3156 3158 3159 3160 3161 3164 3167 3169 3170 3170 3172 3173 3174 3176 3178 3180 3181 3181 3180 3179 3174 3171 3176 3170 3173 3176 3180 3183 3186 3189 3191
3152 3151 3149 3149 3150 3149 3151 3154 3159 3152 3150 3150 3149 3151 3153 3155 3158 3157 3158 3160 3162 3165 3165 3167 3167 3169 3170 3172 3175 3177 3179 3176 3174 3170 3166 3164 3168 3168 3173 3176 3179 3182 3184 3185 3187
3147 3147 3147 3146 3146 3147 3149 3154 3154 3146 3146 3146 3148 3150 3151 3153 3154 3155 3157 3157 3159 3161 3159 3160 3161 3163 3165 3167 3170 3172 3174 3169 3166 3158 3155 3161 3166 3167 3170 3173 3177 3178 3178 3179 3183
3142 3142 3142 3142 3143 3144 3147 3149 3145 3145 3145 3146 3147 3147 3147 3149 3151 3152 3152 3153 3154 3156 3159 3155 3155 3158 3160 3163 3167 3168 3169 3169 3165 3161 3158 3156 3165 3165 3168 3172 3176 3178 3178 3178 3181
3139 3139 3139 3138 3139 3140 3142 3140 3143 3141 3141 3143 3143 3143 3143 3144 3147 3148 3148 3148 3149 3152 3154 3154 3154 3153 3157 3160 3161 3162 3165 3167 3165 3162 3160 3155 3156 3160 3163 3169 3172 3175 3176 3177 3179
3136 3137 3132 3135 3135 3136 3136 3137 3139 3139 3138 3140 3139 3139 3140 3140 3141 3143 3143 3145 3145 3148 3150 3152 3154 3150 3153 3155 3155 3159 3159 3161 3159 3158 3157 3155 3154 3156 3158 3163 3167 3172 3172 3173 3175
3133 3136 3129 3131 3133 3132 3132 3134 3133 3132 3133 3133 3134 3134 3135 3137 3136 3136 3138 3140 3141 3144 3145 3148 3149 3148 3148 3149 3151 3152 3153 3156 3155 3157 3153 3151 3151 3155 3157 3161 3166 3168 3169 3170 3173
3127 3127 3125 3125 3127 3128 3128 3128 3127 3128 3129 3130 3130 3131 3132 3132 3133 3132 3134 3137 3135 3139 3141 3144 3143 3143 3143 3146 3147 3148 3149 3150 3151 3152 3149 3150 3152 3152 3156 3157 3162 3163 3165 3167 3168
3122 3125 3124 3120 3121 3123 3123 3122 3123 3123 3123 3125 3126 3127 3127 3127 3128 3128 3129 3131 3131 3134 3136 3138 3138 3137 3133 3135 3137 3139 3143 3145 3147 3145 3145 3146 3149 3150 3153 3154 3156 3159 3162 3164 3164
3117 3121 3119 3119 3121 3118 3119 3119 3118 3118 3120 3120 3120 3122 3123 3123 3123 3123 3126 3126 3125 3129 3131 3134 3132 3134 3133 3132 3133 3133 3135 3138 3140 3142 3142 3143 3145 3148 3148 3151 3151 3152 3157 3159 3160
3113 3116 3115 3112 3112 3112 3112 3113 3113 3114 3116 3115 3115 3117 3118 3118 3119 3119 3121 3121 3120 3123 3124 3127 3126 3130 3128 3129 3130 3130 3130 3133 3134 3137 3139 3141 3142 3144 3146 3148 3149 3149 3152 3154 3155
3107 3106 3105 3105 3106 3107 3107 3107 3107 3109 3109 3110 3111 3112 3112 3113 3109 3109 3109 3110 3114 3115 3117 3120 3120 3122 3118 3124 3124 3119 3123 3126 3129 3131 3134 3136 3138 3141 3142 3144 3146 3146 3148 3149 3150
Wind_Speed
2 2 3 3 3 3 3 4 5 6 7 7 8 9 10 10 10 9 8 7 8 10 12 12 12 10 9 11 9 7 3 13 17 13 12 11 12 12 14 8 6 8 16 16 14
2 2 3 3 3 3 3 3 5 5 6 7 8 9 10 10 10 9 9 9 10 11 13 12 5 3 1 5 3 4 5 9 10 7 12 11 11 12 8 10 14 17 16 13 14
1 2 2 3 4 3 3 3 4 5 6 7 8 9 9 10 9 11 10 10 11 10 14 6 4 2 2 4 3 6 10 9 7 8 9 9 12 9 6 7 11 16 16 16 14
1 1 2 3 3 4 4 3 3 3 4 6 9 9 10 11 4 10 11 10 10 10 12 8 1 2 1 6 7 7 8 7 7 9 9 9 10 11 11 10 12 15 16 14 13
3 1 1 2 3 3 4 5 4 4 5 6 8 11 12 12 8 12 11 10 10 11 11 4 2 0 3 8 9 4 5 5 7 9 8 10 7 10 12 11 13 14 15 14 11
3 2 1 2 3 3 3 4 4 4 4 5 7 12 14 9 11 12 13 12 12 11 10 7 2 0 2 7 13 6 5 5 7 9 8 7 6 6 10 12 13 13 13 13 10
4 2 1 1 2 4 5 5 5 5 4 5 7 10 16 17 15 12 15 14 14 12 5 5 3 2 3 4 4 7 8 7 9 7 5 6 5 6 9 11 11 12 12 12 12
4 2 0 1 1 3 4 4 4 5 4 5 7 10 10 15 15 13 16 15 14 12 10 8 5 3 3 5 5 7 9 9 11 6 5 8 2 8 10 10 10 11 12 12 12
6 6 3 3 3 4 4 4 4 4 5 5 8 8 8 13 14 14 17 16 15 13 10 7 7 2 4 7 6 3 5 2 5 5 3 6 12 9 10 9 10 10 11 12 13
5 6 5 3 4 5 5 5 4 4 6 6 5 7 7 9 15 14 17 18 17 15 11 9 4 4 7 13 9 4 5 4 8 7 5 5 5 7 10 10 9 10 12 12 13
4 4 4 3 3 4 5 6 5 2 8 8 7 5 6 11 12 13 14 17 15 14 11 11 10 11 11 8 4 8 8 4 4 3 3 9 8 7 9 11 10 11 12 12 12
4 3 3 2 2 4 5 5 7 9 6 10 11 13 6 7 10 12 12 16 17 17 14 10 14 10 9 7 7 8 8 6 6 3 4 3 5 10 10 12 12 11 12 12 12
4 4 2 0 2 5 4 4 5 6 6 12 9 9 8 11 9 14 15 15 15 17 17 16 6 12 10 10 10 9 10 3 4 2 7 6 9 11 11 8 12 14 14 13 14
7 5 3 2 1 3 4 4 4 4 3 11 12 10 12 10 11 14 16 13 14 18 18 18 14 12 12 15 12 13 10 8 7 8 2 4 3 11 13 9 12 13 16 16 16
5 5 5 4 3 4 4 4 5 6 5 8 13 12 12 13 9 15 17 16 15 15 20 20 18 17 18 16 15 15 8 10 11 12 11 8 8 12 9 10 14 13 15 16 18
7 7 5 5 5 6 5 4 7 3 5 10 13 13 16 16 10 10 18 17 14 17 19 20 13 17 21 18 16 14 13 12 13 14 18 14 8 3 12 7 6 6 11 13 17
8 7 7 6 6 6 6 6 4 11 5 9 13 13 17 14 14 15 18 20 17 17 21 18 24 16 16 17 19 18 17 18 13 14 13 10 12 6 4 5 7 7 8 11 15
14 9 8 7 7 7 9 6 11 5 9 6 8 14 18 16 17 16 17 21 22 18 15 19 20 26 19 21 19 20 22 22 11 12 14 15 9 17 9 8 2 2 3 3 7
17 16 11 8 7 8 13 15 10 9 10 10 11 16 18 19 14 17 21 21 22 24 20 13 20 8 21 18 21 19 22 24 26 25 20 9 11 7 13 9 6 5 2 5 1
15 14 12 12 10 10 13 22 10 14 9 11 17 15 19 21 21 19 18 17 23 23 22 13 13 17 16 16 21 25 15 17 23 17 17 21 17 8 16 12 8 6 7 7 2
15 8 18 13 12 15 19 16 16 18 14 14 17 20 19 19 23 23 17 20 13 21 22 23 12 14 14 20 21 22 25 21 22 22 16 12 16 11 18 15 12 8 5 6 15
15 5 18 13 12 14 20 18 20 16 17 17 18 19 23 20 22 26 26 21 13 21 24 24 17 22 18 13 17 22 22 27 26 21 21 20 8 7 10 14 10 10 7 3 7
18 17 16 13 14 16 19 20 18 18 16 18 21 19 21 23 24 26 26 23 19 17 24 22 19 22 19 18 18 21 24 21 26 26 24 20 19 11 11 13 12 10 13 12 13
16 7 11 12 14 18 18 19 20 19 18 19 21 19 21 24 24 24 21 26 21 20 25 23 27 23 24 21 21 26 22 26 26 27 25 26 18 13 11 12 16 15 13 14 17
13 6 13 9 9 14 15 18 18 19 22 19 20 22 21 22 24 27 25 21 24 24 25 26 26 27 27 24 19 15 21 23 28 26 29 24 22 21 18 16 13 16 17 16 18
14 11 12 16 18 19 20 20 20 21 21 20 23 22 20 26 26 26 26 28 29 23 27 29 32 28 31 28 26 28 25 23 23 25 27 26 27 21 9 12 13 13 13 17 18
19 19 21 18 17 19 20 21 22 20 21 22 24 22 19 20 21 21 19 18 19 30 29 28 33 32 34 28 29 37 31 29 27 26 25 26 22 21 21 17 17 17 14 17 18
Wind_Direction
157 152 160 174 184 202 206 180 181 185 188 192 194 189 181 180 174 174 160 130 128 115 122 110 121 105 97 122 132 120 317 83 90 92 92 76 75 95 90 99 119 108 130 151 148
185 183 183 183 192 192 203 191 178 181 189 188 191 190 183 178 177 185 164 147 138 130 128 107 103 95 52 131 193 218 352 85 73 95 97 87 78 84 75 89 113 128 138 137 142
217 211 205 198 200 202 204 200 189 182 185 189 188 189 180 174 172 205 179 162 150 133 133 139 148 79 251 176 200 36 108 106 94 103 107 90 78 73 78 107 135 137 136 137 139
65 235 227 220 216 207 208 214 197 189 179 185 188 186 174 160 155 197 188 168 149 147 145 141 109 289 112 189 186 100 106 79 101 114 103 103 87 75 80 120 140 139 138 138 138
48 34 263 238 229 217 215 211 207 199 179 180 180 185 179 168 217 192 185 170 155 149 147 162 98 306 265 173 166 170 127 130 121 124 124 109 96 86 90 114 136 140 140 134 141
44 45 48 214 218 215 212 214 213 214 196 184 178 182 174 162 210 192 185 176 161 151 148 145 204 195 100 192 218 159 153 151 146 141 138 131 130 90 112 125 139 143 145 139 155
33 18 36 153 204 203 204 201 203 207 203 179 171 175 178 214 202 195 189 183 171 163 172 168 188 68 190 223 196 193 175 151 161 162 175 162 149 156 136 137 137 148 152 159 156
70 59 163 146 168 197 204 203 201 203 194 179 173 173 207 201 196 198 193 192 187 186 171 180 180 229 200 221 180 200 223 197 168 180 209 195 137 149 151 151 146 158 165 169 171
32 40 72 145 143 170 188 193 200 200 192 179 170 172 258 203 197 200 195 191 193 196 187 179 153 197 223 173 193 192 120 160 168 201 219 192 166 157 167 173 166 166 172 169 175
14 28 49 116 128 144 159 176 186 192 183 157 176 159 260 203 204 199 197 196 194 198 195 194 208 207 208 222 207 301 219 120 278 193 188 201 155 172 170 189 188 182 175 174 179
29 38 48 77 138 148 145 136 99 279 189 161 225 190 177 214 200 199 197 193 192 199 201 216 220 221 220 222 227 236 223 238 327 222 239 192 190 186 199 196 199 200 189 184 187
14 23 66 104 148 164 171 185 180 207 198 212 206 192 191 196 198 199 187 182 196 201 199 217 224 222 217 201 217 239 256 185 258 262 287 251 222 210 202 201 211 208 209 201 190
0 358 356 46 175 175 190 196 179 177 153 257 218 207 221 195 196 199 186 181 202 203 210 217 220 221 212 220 224 229 246 156 290 265 248 264 250 189 197 220 211 212 213 209 204
340 336 331 313 222 196 206 195 183 178 212 220 213 197 203 170 209 207 191 196 211 212 212 226 229 229 231 224 224 252 227 252 252 269 291 234 287 210 200 213 225 220 216 214 210
340 324 317 295 265 230 219 191 171 156 265 187 180 204 193 166 201 197 194 208 207 215 213 228 226 235 227 227 228 240 267 241 247 259 275 227 245 146 205 232 223 216 220 222 218
333 327 312 283 268 250 230 188 156 218 235 181 199 195 189 197 217 216 197 200 213 226 228 218 241 226 235 232 229 235 245 248 245 254 260 239 250 316 127 133 153 190 209 228 223
318 307 300 282 258 238 209 178 235 244 172 212 202 197 192 205 208 203 201 204 206 205 220 233 230 240 228 226 224 228 228 234 226 224 240 238 205 267 193 160 173 211 228 229 225
307 305 295 276 254 227 198 188 240 259 211 214 199 199 206 205 211 213 211 215 217 220 242 222 221 228 221 215 215 225 224 238 229 244 245 193 215 239 152 152 162 67 193 177 202
297 295 286 277 255 225 192 217 230 248 233 228 210 211 214 215 217 218 219 227 226 220 231 243 237 231 219 228 213 221 226 234 262 271 285 190 237 193 201 192 203 215 289 205 136
300 295 267 273 257 231 221 232 245 246 231 219 223 219 220 216 216 219 216 232 226 226 220 240 253 219 221 217 222 224 230 231 238 256 264 256 246 284 168 190 186 187 208 226 256
314 318 266 277 254 236 232 246 253 249 242 231 236 239 234 231 227 228 226 236 229 221 223 220 230 212 201 218 220 217 229 232 249 229 241 250 259 254 196 191 179 199 223 280 200
310 291 269 281 255 248 247 249 256 243 252 238 240 234 239 238 239 231 233 233 239 214 220 217 228 235 222 238 229 225 233 228 237 234 258 274 284 150 146 174 187 204 259 222 270
294 288 277 268 248 256 256 254 250 248 247 250 245 247 238 240 241 238 240 233 227 214 221 213 224 241 238 228 225 230 229 235 231 238 247 243 245 180 167 192 179 200 246 269 275
301 293 281 285 253 252 253 252 259 257 246 241 247 246 245 241 236 238 243 228 226 224 219 215 229 231 238 225 233 220 233 230 234 243 240 235 235 185 194 217 240 238 252 270 269
308 261 255 247 266 257 254 256 256 255 250 252 247 244 244 246 244 241 237 231 229 228 224 219 232 234 243 251 249 244 233 226 231 235 244 244 241 246 247 221 218 236 263 258 259
289 277 256 268 266 263 263 259 257 258 248 251 252 249 245 248 246 248 244 238 234 237 233 225 236 239 248 244 246 247 241 234 237 236 239 244 249 242 250 217 215 244 236 242 248
280 274 271 270 267 261 258 259 256 260 253 249 250 251 246 251 243 245 247 243 234 238 236 235 234 236 245 242 245 249 236 239 240 240 234 239 241 239 238 226 228 246 244 244 248